sat.trackr.live / text

‹ back to catalog

UFO 10 (USA 146)

NORAD 25967 · 1999-063A

PAYLOAD ACTIVE UNKNOWN

§ Identity

Operator
Country
US
Launch date
1999-11-23
Launch site
AFETR
Launch vehicle
Mass (kg)
RCS (m²)
0.52

Purposes: comms

External: N2YO · Heavens-Above · Gunter

§ Orbital elements

Epoch: 2026-05-24T01:26:38.421888Z

Period
1,436.15 min
Inclination
9.8403°
Eccentricity
0.0002931
Mean motion
1.00267754 rev/d
Perigee alt
35,775.4 km
Apogee alt
35,800.1 km
Semi-major
42,165.9 km
B*
0.0000e+0
RAAN
27.3441°
Arg perigee
331.6274°
Mean anomaly
241.4022°
Rev number
9,710

§ Raw data

UFO 10 (USA 146)1 25967U 99063A   26144.06016692 -.00000197  00000+0  00000+0 0  99992 25967   9.8403  27.3441 0002931 331.6274 241.4022  1.00267754 97101

JSON: /api/v1/satellites/25967 · /tle

For live sub-satellite position, see the globe view (requires WebGL).

§ Visibility from observer

Set your observer location to see the next 7 days of passes ≥ 10°. The values pass through the URL so the page stays shareable.

No JS? Fill the form by hand. The geolocation button needs JavaScript.